Location: Bernay
(48.6766°N, 2.9386°E)
Time: 01:29:30
(UTC+00:00)

ISS - Pass Details

Date: 12 January 2026
Orbit: 414 x 429 km, 51.6° (Epoch: 6 February)

Event Time Altitude Azimuth Distance (km) Brightness Sun altitude
Rises 18:05:57 0° 208° (SSW) 2,351 0.7 -17.5°
Reaches altitude 10° 18:08:21 10° 191° (SSW) 1,495 -0.7 -17.9°
Enters shadow 18:10:30 20° 152° (SSE) 1,021 -2.0 -18.2°
